This demonstration page uses our WeatherBlox Daily Observations layout. Learn more.

39.92423, -83.80882

Hourly Observations for December 22, 2017

Temp ( °F °C ) Dew Point ( °F °C ) Humidity (%) Winds ( mph kmh ) Pressure ( in mb ) Visibility ( mi km ) Precip ( " mm )
12:56 am 00:56 Cloudy 48 8.9 43 6.1 83 83 Calm 29.93 1014 10 16.0934 0 0
1:56 am 01:56 Cloudy 47 8.3 43 6.1 86 86 SSE 3 6 29.92 1013 10 16.0934 0 0
2:47 am 02:47 Cloudy 50 10 46 8 88 88 SSW 8 13 29.91 1013 10 16.0934 0 0
2:56 am 02:56 Cloudy 50 10 47 8.3 89 89 SSW 8 13 29.93 1014 10 16.0934 0 0
3:43 am 03:43 Cloudy 52 11 48 9 88 88 SSW 10 17 29.91 1013 10 16.0934 0 0
3:56 am 03:56 Cloudy 51 10.6 48 8.9 89 89 SW 12 19 29.92 1013 10 16.0934 0 0
4:14 am 04:14 Cloudy 52 11 48 9 88 88 SW 10 17 29.91 1013 10 16.0934 0 0
4:45 am 04:45 Cloudy 52 11 48 9 88 88 SW 12 19 29.91 1013 10 16.0934 0 0
4:56 am 04:56 Cloudy 51 10.6 48 8.9 89 89 SW 12 19 29.92 1013 10 16.0934 0 0
5:44 am 05:44 Cloudy with Light Rain 52 11 48 9 88 88 WSW 13 20 29.91 1013 5 8.0467 0 0.0254
5:56 am 05:56 Cloudy with Light Rain 50 10 49 9.4 96 96 WSW 14 22 29.93 1014 7 11.26538 0 0.0254
6:56 am 06:56 Cloudy 50 10 48 8.9 93 93 WSW 10 17 29.97 1015 10 16.0934 0 0.0254
7:30 am 07:30 Cloudy 50 10 48 9 94 94 SW 9 15 29.97 1015 10 16.0934 0 0
7:56 am 07:56 Cloudy 51 10.6 48 8.9 89 89 SW 9 15 29.97 1015 10 16.0934 0 0
8:46 am 08:46 Cloudy with Mist and Fog 50 10 48 9 94 94 SW 8 13 29.97 1015 5 8.0467 0 0
8:56 am 08:56 Cloudy with Mist and Fog 51 10.6 49 9.4 92 92 SSW 7 11 29.99 1016 5 8.0467 0 0
9:28 am 09:28 Cloudy with Mist and Fog 52 11 48 9 88 88 SSW 8 13 29.97 1015 6 9.65604 0 0
9:50 am 09:50 Cloudy with Mist and Fog 50 10 48 9 94 94 SSW 8 13 29.97 1015 2.5 4.02335 0 0
9:56 am 09:56 Cloudy with Mist and Fog 50 10 50 10 100 100 SW 8 13 30 1016 2 3.21868 0 0
10:11 am 10:11 Cloudy with Mist and Fog 50 10 50 10 100 100 SW 9 15 30 1016 1.75 2.816345 0 0
10:56 am 10:56 Cloudy with Light Rain 51 10.6 50 10 96 96 SSW 8 13 30.01 1016 1.75 2.816345 0 0.0254
11:07 am 11:07 Cloudy with Mist and Fog 52 11 50 10 94 94 SW 9 15 30 1016 2.5 4.02335 0 0.0254
11:44 am 11:44 Cloudy with Mist and Fog 52 11 52 11 100 100 SW 8 13 29.97 1015 1.75 2.816345 0 0.0254
11:52 am 11:52 Cloudy with Mist and Fog 52 11 52 11 100 100 SW 9 15 29.97 1015 2.5 4.02335 0 0.0254
11:56 am 11:56 Cloudy with Mist and Fog 51 10.6 51 10.6 100 100 SW 10 17 29.98 1015 2 3.21868 0 0.0254
12:08 pm 12:08 Cloudy with Mist and Fog 52 11 52 11 100 100 SW 7 11 29.97 1015 1.75 2.816345 0 0
12:17 pm 12:17 Cloudy with Mist and Fog 52 11 52 11 100 100 SW 9 15 29.94 1014 2.5 4.02335 0 0
12:30 pm 12:30 Cloudy with Mist and Fog 52 11 52 11 100 100 SSW 8 13 29.94 1014 3 4.82802 0 0
12:56 pm 12:56 Cloudy with Mist and Fog 52 11.1 51 10.6 97 97 SSW 8 13 29.96 1015 3 4.82802 0 0
1:14 pm 13:14 Cloudy with Mist and Fog 52 11 52 11 100 100 SW 9 15 29.97 1015 4 6.43736 0 0
1:43 pm 13:43 Cloudy with Light Rain 52 11 52 11 100 100 SW 9 15 29.94 1014 2 3.21868 0 0.0254
1:53 pm 13:53 Cloudy with Light Rain 52 11 52 11 100 100 SW 8 13 29.94 1014 4 6.43736 0 0.0254
1:56 pm 13:56 Cloudy with Light Rain 52 11.1 51 10.6 97 97 SW 8 13 29.95 1014 4 6.43736 0 0.0254
2:56 pm 14:56 Cloudy 53 11.7 51 10.6 93 93 SSW 9 15 29.96 1014 8 12.87472 0 0.0254
3:56 pm 15:56 Cloudy 53 11.7 51 10.6 93 93 SSW 7 11 29.97 1015 8 12.87472 0 0
4:11 pm 16:11 Cloudy 54 12 52 11 94 94 SSW 7 11 29.97 1015 7 11.26538 0 0
4:56 pm 16:56 Cloudy with Mist and Fog 53 11.7 51 10.6 93 93 SSW 7 11 29.97 1015 5 8.0467 0 0
5:56 pm 17:56 Cloudy with Mist and Fog 52 11.1 51 10.6 97 97 SSW 6 9 29.97 1015 6 9.65604 0 0
6:17 pm 18:17 Cloudy with Mist and Fog 52 11 52 11 100 100 SSW 6 9 29.97 1015 6 9.65604 0 0
6:27 pm 18:27 Cloudy with Mist and Fog 52 11 52 11 100 100 SSW 7 11 29.97 1015 6 9.65604 0 0
6:40 pm 18:40 Cloudy with Mist and Fog 52 11 52 11 100 100 SSW 6 9 29.97 1015 6 9.65604 0 0
6:56 pm 18:56 Cloudy with Mist and Fog 52 11.1 51 10.6 97 97 SSW 6 9 29.98 1015 5 8.0467 0 0
7:44 pm 19:44 Cloudy with Mist and Fog 52 11 52 11 100 100 SSW 5 7 29.97 1015 5 8.0467 0 0
7:56 pm 19:56 Cloudy with Mist and Fog 52 11.1 51 10.6 97 97 SSW 8 13 29.96 1015 5 8.0467 0 0
8:56 pm 20:56 Cloudy with Mist and Fog 52 11.1 51 10.6 97 97 SSW 6 9 29.96 1014 4 6.43736 0 0
9:16 pm 21:16 Cloudy with Mist and Fog 52 11 52 11 100 100 SSW 6 9 29.94 1014 2.5 4.02335 0 0
9:56 pm 21:56 Cloudy with Mist and Fog 51 10.6 51 10.6 100 100 SSW 6 9 29.95 1014 2 3.21868 0 0
10:06 pm 22:06 Cloudy with Light Rain 52 11 50 10 94 94 NW 6 9 29.94 1014 1.75 2.816345 0 0.0254
10:13 pm 22:13 Cloudy with Light Rain 50 10 50 10 100 100 NNW 9 15 29.94 1014 2 3.21868 0 0.0254
10:37 pm 22:37 Cloudy with Light Rain 48 9 48 9 100 100 NNW 6 9 29.97 1015 3 4.82802 0 0.0254
10:56 pm 22:56 Cloudy with Light Rain 49 9.4 48 8.9 97 97 NNW 6 9 29.95 1014 4 6.43736 0 0.0254
11:30 pm 23:30 Cloudy with Light Rain 46 8 46 8 100 100 NNW 6 9 29.97 1015 4 6.43736 0 0.0254
11:44 pm 23:44 Cloudy with Light Rain 46 8 46 8 100 100 NW 6 9 29.97 1015 3 4.82802 0.01 0.254
11:56 pm 23:56 Cloudy with Light Rain 47 8.3 46 7.8 97 97 NNW 8 13 29.95 1014 3 4.82802 0.01 0.254

Powered by AerisWeather